When you browse on this site, cookies collect data to enhance your experience and personalize the content and advertising you see.
Visit our Privacy Policy to learn more. By continuing to use the site, you agree to this use of cookies and data.
  • In Austria
  • List of Countries
  • For 7 days
  • Water Temperature
  • Satellite Maps
  • Weather Map
  • News
  • Weather Widgets
  • user-avatar
    Login

    Hourly Weather Granica

    Today, 21 March, Thursday

    Time Temperature Precipitation Wind Pressure Humidity
    00:00 +5°C° 0 mm 4 mps 764 mmHg 58%
    01:00 +5°C° 0 mm 5 mps 764 mmHg 58%
    02:00 +5°C° 0 mm 5 mps 764 mmHg 61%
    03:00 +5°C° 0 mm 4 mps 764 mmHg 64%
    04:00 +5°C° 0 mm 4 mps 763 mmHg 66%
    05:00 +5°C° 0 mm 4 mps 764 mmHg 70%
    06:00 +5°C° 0 mm 4 mps 764 mmHg 73%
    07:00 +5°C° 0 mm 4 mps 764 mmHg 77%
    08:00 +6°C° 0 mm 4 mps 764 mmHg 77%
    09:00 +7°C° 0 mm 4 mps 764 mmHg 76%
    10:00 +8°C° 0 mm 4 mps 764 mmHg 76%
    11:00 +8°C° 0 mm 4 mps 764 mmHg 73%
    12:00 +8°C° 0 mm 4 mps 764 mmHg 71%
    13:00 +9°C° 0 mm 5 mps 764 mmHg 68%
    14:00 +9°C° 0 mm 5 mps 764 mmHg 67%
    15:00 +10°C° 0 mm 5 mps 763 mmHg 67%
    16:00 +10°C° 0 mm 5 mps 763 mmHg 66%
    17:00 +9°C° 0 mm 5 mps 763 mmHg 70%
    18:00 +10°C° 0 mm 4 mps 763 mmHg 74%
    19:00 +8°C° 0 mm 4 mps 763 mmHg 78%
    20:00 +8°C° 0 mm 4 mps 763 mmHg 80%
    21:00 +8°C° 0 mm 4 mps 763 mmHg 82%
    22:00 +8°C° 0 mm 4 mps 763 mmHg 84%
    23:00 +8°C° 0 mm 4 mps 763 mmHg 85%

    Tomorrow, 22 March, Friday

    Time Temperature Precipitation Wind Pressure Humidity
    00:00 +8°C° 0 mm 4 mps 763 mmHg 86%
    01:00 +8°C° 0 mm 4 mps 763 mmHg 88%
    02:00 +8°C° 0 mm 4 mps 763 mmHg 89%
    03:00 +8°C° 0 mm 4 mps 763 mmHg 90%
    04:00 +8°C° 0 mm 4 mps 763 mmHg 91%
    05:00 +8°C° 0 mm 4 mps 763 mmHg 91%
    06:00 +8°C° 0 mm 4 mps 763 mmHg 91%
    07:00 +8°C° 0 mm 4 mps 763 mmHg 91%
    08:00 +10°C° 0 mm 4 mps 763 mmHg 87%
    09:00 +10°C° 0 mm 3 mps 764 mmHg 83%
    10:00 +11°C° 0 mm 3 mps 764 mmHg 79%
    11:00 +11°C° 0 mm 3 mps 764 mmHg 78%
    12:00 +11°C° 0 mm 3 mps 764 mmHg 77%
    13:00 +12°C° 0 mm 2 mps 764 mmHg 76%
    14:00 +13°C° 0 mm 2 mps 764 mmHg 71%
    15:00 +13°C° 0 mm 2 mps 763 mmHg 67%
    16:00 +14°C° 0 mm 2 mps 763 mmHg 62%
    17:00 +13°C° 0 mm 1 mps 763 mmHg 67%
    18:00 +12°C° 0 mm 1 mps 763 mmHg 71%
    19:00 +10°C° 0 mm 0 mps 763 mmHg 75%
    20:00 +9°C° 0 mm 0 mps 763 mmHg 78%
    21:00 +9°C° 0 mm 0 mps 763 mmHg 80%
    22:00 +9°C° 0 mm 1 mps 763 mmHg 83%
    23:00 +9°C° 0 mm 1 mps 763 mmHg 84%

    Day after tomorrow, 23 March, Saturday

    Time Temperature Precipitation Wind Pressure Humidity
    00:00 +8°C° 0 mm 1 mps 763 mmHg 86%
    01:00 +8°C° 0 mm 1 mps 763 mmHg 87%
    02:00 +8°C° 0 mm 1 mps 762 mmHg 88%
    03:00 +8°C° 0 mm 1 mps 762 mmHg 89%
    04:00 +7°C° 0 mm 1 mps 762 mmHg 91%
    05:00 +8°C° 0 mm 1 mps 761 mmHg 90%
    06:00 +7°C° 0 mm 2 mps 761 mmHg 90%
    07:00 +7°C° 0 mm 2 mps 761 mmHg 90%
    08:00 +9°C° 0 mm 2 mps 761 mmHg 83%
    09:00 +12°C° 0 mm 2 mps 761 mmHg 76%
    10:00 +14°C° 0 mm 2 mps 761 mmHg 70%
    11:00 +15°C° 0 mm 2 mps 760 mmHg 65%
    12:00 +16°C° 0 mm 2 mps 760 mmHg 60%
    13:00 +17°C° 0 mm 2 mps 759 mmHg 55%
    14:00 +17°C° 0 mm 2 mps 759 mmHg 55%
    15:00 +18°C° 0 mm 3 mps 758 mmHg 55%
    16:00 +18°C° 0 mm 3 mps 758 mmHg 54%
    17:00 +17°C° 0 mm 2 mps 758 mmHg 60%
    18:00 +15°C° 0 mm 2 mps 758 mmHg 65%
    19:00 +14°C° 0 mm 2 mps 758 mmHg 70%
    20:00 +13°C° 0 mm 2 mps 758 mmHg 74%
    21:00 +12°C° 0 mm 3 mps 758 mmHg 77%
    22:00 +11°C° 0 mm 3 mps 759 mmHg 81%
    23:00 +10°C° 0 mm 3 mps 759 mmHg 81%

    24 March, Sunday

    Time Temperature Precipitation Wind Pressure Humidity
    00:00 +10°C° 0 mm 4 mps 759 mmHg 81%
    01:00 +8°C° 0 mm 4 mps 759 mmHg 81%
    02:00 +7°C° 0 mm 4 mps 759 mmHg 79%
    03:00 +7°C° 0 mm 3 mps 759 mmHg 76%
    04:00 +5°C° 0 mm 3 mps 760 mmHg 74%
    05:00 +5°C° 0 mm 3 mps 760 mmHg 72%
    06:00 +5°C° 0 mm 3 mps 760 mmHg 70%
    07:00 +5°C° 0 mm 3 mps 761 mmHg 68%
    08:00 +7°C° 0 mm 2 mps 761 mmHg 64%
    09:00 +8°C° 0 mm 2 mps 761 mmHg 60%
    10:00 +9°C° 0 mm 2 mps 761 mmHg 56%
    11:00 +10°C° 0 mm 2 mps 760 mmHg 50%
    12:00 +12°C° 0 mm 1 mps 760 mmHg 45%
    13:00 +13°C° 0 mm 1 mps 760 mmHg 39%
    14:00 +13°C° 0 mm 1 mps 759 mmHg 37%
    15:00 +13°C° 0 mm 1 mps 759 mmHg 36%
    16:00 +13°C° 0 mm 1 mps 758 mmHg 35%
    17:00 +12°C° 0 mm 1 mps 758 mmHg 39%
    18:00 +11°C° 0 mm 1 mps 758 mmHg 42%
    19:00 +9°C° 0 mm 1 mps 758 mmHg 46%
    20:00 +9°C° 0 mm 1 mps 757 mmHg 48%
    21:00 +9°C° 0 mm 1 mps 757 mmHg 50%
    22:00 +8°C° 0 mm 1 mps 757 mmHg 52%
    23:00 +8°C° 0 mm 1 mps 756 mmHg 54%

    25 March, Monday

    Time Temperature Precipitation Wind Pressure Humidity
    00:00 +8°C° 0 mm 1 mps 756 mmHg 55%
    01:00 +8°C° 0 mm 1 mps 755 mmHg 57%
    02:00 +8°C° 0.1 mm 1 mps 754 mmHg 60%
    03:00 +8°C° 0.1 mm 1 mps 754 mmHg 62%
    04:00 +6°C° 0.1 mm 0 mps 753 mmHg 65%
    05:00 +7°C° 0 mm 1 mps 753 mmHg 64%
    06:00 +6°C° 0 mm 2 mps 753 mmHg 64%
    07:00 +6°C° 0 mm 2 mps 753 mmHg 64%
    08:00 +7°C° 0 mm 3 mps 753 mmHg 57%
    09:00 +7°C° 0 mm 4 mps 752 mmHg 50%
    10:00 +9°C° 0 mm 5 mps 752 mmHg 42%
    11:00 +9°C° 0 mm 5 mps 752 mmHg 41%
    12:00 +9°C° 0 mm 6 mps 751 mmHg 40%
    13:00 +10°C° 0 mm 6 mps 751 mmHg 39%
    14:00 +9°C° 0 mm 6 mps 750 mmHg 41%
    15:00 +9°C° 0 mm 6 mps 750 mmHg 43%
    16:00 +9°C° 0 mm 7 mps 749 mmHg 44%
    17:00 +8°C° 0.1 mm 7 mps 749 mmHg 50%
    18:00 +6°C° 0.1 mm 7 mps 749 mmHg 56%
    19:00 +5°C° 0.1 mm 6 mps 749 mmHg 62%
    20:00 +4°C° 0.3 mm 6 mps 748 mmHg 63%
    21:00 +4°C° 0.3 mm 6 mps 748 mmHg 63%
    22:00 +3°C° 0.3 mm 6 mps 748 mmHg 64%
    23:00 +2°C° 0 mm 6 mps 748 mmHg 65%

    26 March, Tuesday

    Time Temperature Precipitation Wind Pressure Humidity
    00:00 +2°C° 0 mm 6 mps 748 mmHg 67%
    01:00 +1°C° 0 mm 6 mps 747 mmHg 69%
    02:00 0°C° 0 mm 7 mps 747 mmHg 70%
    03:00 0°C° 0 mm 8 mps 746 mmHg 70%
    04:00 0°C° 0 mm 9 mps 746 mmHg 71%
    05:00 0°C° 0 mm 8 mps 746 mmHg 71%
    06:00 0°C° 0 mm 8 mps 745 mmHg 71%
    07:00 0°C° 0 mm 8 mps 745 mmHg 71%
    08:00 0°C° 0.2 mm 8 mps 746 mmHg 68%
    09:00 +1°C° 0.2 mm 8 mps 746 mmHg 66%
    10:00 +2°C° 0.2 mm 8 mps 746 mmHg 63%
    11:00 +2°C° 0.5 mm 8 mps 747 mmHg 62%
    12:00 +2°C° 0.5 mm 8 mps 747 mmHg 61%
    13:00 +2°C° 0.5 mm 9 mps 748 mmHg 60%
    14:00 +2°C° 0.1 mm 9 mps 749 mmHg 62%
    15:00 +1°C° 0.1 mm 9 mps 749 mmHg 64%
    16:00 +1°C° 0.1 mm 9 mps 750 mmHg 67%
    17:00 0°C° 0.2 mm 9 mps 750 mmHg 69%
    18:00 -1°C° 0.2 mm 9 mps 751 mmHg 72%
    19:00 -1°C° 0.2 mm 9 mps 752 mmHg 75%
    20:00 -1°C° 0.3 mm 9 mps 752 mmHg 76%
    21:00 -3°C° 0.3 mm 9 mps 752 mmHg 77%
    22:00 -3°C° 0.3 mm 9 mps 752 mmHg 78%
    23:00 -3°C° 0.4 mm 9 mps 752 mmHg 79%
    Show more